Date String (YYYY-MM-DD hh:mm:ss) UTC,Instrument flags,Ambient pressure (hPa),Sample flow (lpm),Bypass flow (lpm),Sample temperature (°C),Ambient temperature (°C),ASC tube jacket temperature (°C),LED temperature (°C),Box temperature (°C),Sample RH (%),Span deviation,Mass concentration (μg/m³),Mass concentration (μg/m³),Mass concentration (μg/m³)
DateTimeUTC,F1_M11,P_M11,Q1_M11,Q2_M11,T1_M11,T2_M11,T3_M11,T4_M11,T5_M11,U1_M11,ZSPAN_M11,X2_M11,X0_M11,X1_M11
2023-01-28 18:00:00,,0819.3,4.98,0.00,22.1,20.6,00.0,31.0,23.9,14.3,0000.0,0006.47,0008.65,0006.28
2023-01-28 18:01:00,,0819.3,5.01,0.00,22.1,20.6,00.0,31.0,23.8,14.2,0000.0,0006.47,0008.67,0006.27
2023-01-28 18:02:00,,0819.2,5.00,0.00,22.1,20.6,00.0,31.0,23.8,14.1,0000.0,0006.48,0008.75,0006.28
2023-01-28 18:03:00,,0819.3,5.01,0.00,22.1,21.4,00.0,30.9,24.0,14.1,0000.0,0006.51,0008.80,0006.30
2023-01-28 18:04:00,,0819.3,4.99,0.00,22.2,22.4,00.0,30.9,24.3,14.1,0000.0,0006.50,0008.74,0006.31
2023-01-28 18:05:00,,0819.3,5.00,0.00,22.4,22.5,00.0,31.0,24.4,14.2,0000.0,0006.51,0008.72,0006.33
2023-01-28 18:06:00,,0819.3,4.99,0.00,22.4,22.1,00.0,31.1,24.3,14.1,0000.0,0006.53,0008.74,0006.35
2023-01-28 18:07:00,,0819.2,5.00,0.00,22.4,21.8,00.0,31.1,24.3,14.0,0000.0,0006.57,0009.18,0006.38
2023-01-28 18:08:00,,0819.2,4.99,0.00,22.4,21.6,00.0,31.1,24.2,14.1,0000.0,0006.61,0009.60,0006.41
2023-01-28 18:09:00,,0819.2,5.00,0.00,22.4,21.4,00.0,31.1,24.2,14.1,0000.0,0006.63,0009.62,0006.43
2023-01-28 18:10:00,,0819.2,5.00,0.00,22.4,21.3,00.0,31.1,24.2,14.0,0000.0,0006.65,0009.66,0006.44
2023-01-28 18:11:00,,0819.1,5.02,0.00,22.4,21.1,00.0,31.1,24.2,13.9,0000.0,0006.65,0009.65,0006.45
2023-01-28 18:12:00,,0819.1,5.01,0.00,22.3,21.0,00.0,31.2,24.1,13.9,0000.0,0006.65,0009.63,0006.46
2023-01-28 18:13:00,,0819.1,4.98,0.00,22.3,20.8,00.0,31.2,24.0,13.8,0000.0,0006.64,0009.59,0006.46
2023-01-28 18:14:00,,0819.1,4.99,0.00,22.3,20.6,00.0,31.1,24.0,13.9,0000.0,0006.63,0009.55,0006.46
2023-01-28 18:15:00,,0819.1,5.00,0.00,22.2,20.5,00.0,31.1,23.9,14.1,0000.0,0006.63,0009.55,0006.46
2023-01-28 18:16:00,,0819.1,5.00,0.00,22.2,20.5,00.0,31.1,23.9,14.2,0000.0,0006.66,0009.61,0006.47
2023-01-28 18:17:00,,0819.0,5.01,0.00,22.2,20.5,00.0,31.1,23.9,14.2,0000.0,0006.68,0009.65,0006.49
2023-01-28 18:18:00,,0819.1,5.00,0.00,22.2,20.6,00.0,31.1,23.9,14.3,0000.0,0006.68,0009.22,0006.51
2023-01-28 18:19:00,,0819.0,5.00,0.00,22.2,20.6,00.0,31.1,23.9,14.3,0000.0,0006.69,0008.82,0006.54
2023-01-28 18:20:00,,0819.0,4.99,0.00,22.1,20.6,00.0,31.1,23.9,14.4,0000.0,0006.74,0008.98,0006.56
2023-01-28 18:21:00,,0819.0,5.01,0.00,22.1,20.6,00.0,31.1,23.9,14.3,0000.0,0006.76,0009.20,0006.59
2023-01-28 18:22:00,,0819.0,5.03,0.00,22.1,20.6,00.0,31.1,23.9,14.2,0000.0,0006.79,0009.23,0006.61
2023-01-28 18:23:00,,0819.0,4.98,0.00,22.1,20.5,00.0,31.1,23.8,14.1,0000.0,0006.81,0009.26,0006.62
2023-01-28 18:24:00,,0819.0,5.02,0.00,22.1,20.5,00.0,31.0,23.8,14.2,0000.0,0006.82,0009.25,0006.62
2023-01-28 18:25:00,,0819.0,4.99,0.00,22.1,20.4,00.0,31.0,23.8,14.1,0000.0,0006.83,0009.24,0006.63
2023-01-28 18:26:00,,0819.0,5.00,0.00,22.0,20.3,00.0,31.0,23.7,14.1,0000.0,0006.87,0009.36,0006.63
2023-01-28 18:27:00,,0819.0,5.01,0.00,22.0,20.3,00.0,31.0,23.7,14.0,0000.0,0006.87,0009.40,0006.61
2023-01-28 18:28:00,,0819.0,4.98,0.00,22.0,21.1,00.0,31.0,23.9,14.0,0000.0,0006.84,0009.48,0006.59
2023-01-28 18:29:00,,0819.0,4.99,0.00,22.2,22.1,00.0,30.9,24.2,14.0,0000.0,0006.83,0009.58,0006.58
2023-01-28 18:30:00,,0818.9,4.99,0.00,22.2,22.3,00.0,31.0,24.3,13.9,0000.0,0006.82,0009.57,0006.56
2023-01-28 18:31:00,,0818.9,4.98,0.00,22.3,21.9,00.0,31.0,24.2,13.9,0000.0,0006.78,0009.43,0006.55
2023-01-28 18:32:00,,0818.9,4.97,0.00,22.3,21.6,00.0,31.0,24.1,13.9,0000.0,0006.76,0009.21,0006.54
2023-01-28 18:33:00,,0819.0,5.00,0.00,22.2,21.3,00.0,31.1,24.0,13.9,0000.0,0006.76,0009.20,0006.54
2023-01-28 18:34:00,,0818.9,5.03,0.00,22.2,21.0,00.0,31.1,24.0,14.0,0000.0,0006.75,0009.19,0006.53
2023-01-28 18:35:00,,0818.9,5.02,0.00,22.2,20.7,00.0,31.1,23.9,14.0,0000.0,0006.75,0009.17,0006.55
2023-01-28 18:36:00,,0818.9,5.01,0.00,22.1,20.5,00.0,31.1,23.8,14.1,0000.0,0006.75,0009.16,0006.57
2023-01-28 18:37:00,,0818.9,4.99,0.00,22.1,20.5,00.0,31.1,23.8,14.2,0000.0,0006.73,0009.09,0006.58
2023-01-28 18:38:00,,0818.9,5.00,0.00,22.1,20.5,00.0,31.0,23.8,14.2,0000.0,0006.72,0009.03,0006.59
2023-01-28 18:39:00,,0818.9,5.01,0.00,22.1,20.4,00.0,31.0,23.8,14.2,0000.0,0006.75,0008.94,0006.61
2023-01-28 18:40:00,,0818.8,5.00,0.00,22.1,20.4,00.0,31.0,23.8,14.3,0000.0,0006.75,0008.86,0006.61
2023-01-28 18:41:00,,0818.8,4.99,0.00,22.0,20.3,00.0,31.0,23.7,14.2,0000.0,0006.75,0008.87,0006.59
2023-01-28 18:42:00,,0818.8,5.01,0.00,22.0,20.3,00.0,31.0,23.7,14.1,0000.0,0006.73,0008.85,0006.58
2023-01-28 18:43:00,,0818.8,4.99,0.00,22.0,20.3,00.0,31.0,23.7,14.1,0000.0,0006.74,0008.88,0006.57
2023-01-28 18:44:00,,0818.8,5.01,0.00,22.0,20.2,00.0,31.0,23.6,14.1,0000.0,0006.73,0008.87,0006.57
2023-01-28 18:45:00,,0818.8,5.00,0.00,21.9,20.1,00.0,31.0,23.6,14.2,0000.0,0006.73,0008.86,0006.58
2023-01-28 18:46:00,,0818.7,4.99,0.00,21.9,20.2,00.0,30.9,23.6,14.3,0000.0,0006.72,0008.87,0006.56
2023-01-28 18:47:00,,0818.7,5.00,0.00,22.0,21.3,00.0,30.9,23.8,14.4,0000.0,0006.71,0008.85,0006.55
2023-01-28 18:48:00,,0818.7,4.99,0.00,22.1,22.3,00.0,30.9,24.1,14.3,0000.0,0006.69,0008.84,0006.53
2023-01-28 18:49:00,,0818.7,5.00,0.00,22.1,22.0,00.0,30.9,24.1,14.1,0000.0,0006.68,0008.85,0006.52
2023-01-28 18:50:00,,0818.7,5.00,0.00,22.1,21.6,00.0,31.0,24.0,14.0,0000.0,0006.65,0008.80,0006.50
2023-01-28 18:51:00,,0818.7,4.99,0.00,22.1,21.2,00.0,31.0,23.9,14.1,0000.0,0006.63,0008.76,0006.49
2023-01-28 18:52:00,,0818.6,5.02,0.00,22.1,20.9,00.0,31.0,23.8,14.1,0000.0,0006.65,0008.83,0006.49
2023-01-28 18:53:00,,0818.5,4.99,0.00,22.1,20.7,00.0,31.0,23.8,14.3,0000.0,0006.66,0008.83,0006.50
2023-01-28 18:54:00,,0818.5,5.04,0.00,22.0,20.6,00.0,31.0,23.7,14.4,0000.0,0006.65,0008.80,0006.50
2023-01-28 18:55:00,,0818.6,5.01,0.00,22.0,20.5,00.0,31.0,23.7,14.5,0000.0,0006.64,0008.78,0006.50
2023-01-28 18:56:00,,0818.6,5.01,0.00,22.0,20.4,00.0,31.0,23.7,14.5,0000.0,0006.66,0008.81,0006.51
2023-01-28 18:57:00,,0818.5,4.98,0.00,21.9,20.3,00.0,30.9,23.6,14.4,0000.0,0006.68,0008.84,0006.54
2023-01-28 18:58:00,,0818.5,4.99,0.00,21.9,20.2,00.0,30.9,23.6,14.3,0000.0,0006.71,0008.87,0006.57
2023-01-28 18:59:00,,0818.5,5.04,0.00,21.9,20.1,00.0,30.9,23.5,14.3,0000.0,0006.73,0008.86,0006.59
